Regional Weather Roundup
Issued by NWS Albany, NY

Home | Current Version | Previous Version | Text Only | Print | Product List | Glossary On
Versions: 1 2 3 4 5 6 7 8 9 10 11 12 13 14 15 16 17 18 19 20 21 22 23 24 25 26 27 28 29 30 31 32 33 34 35 36 37 38 39 40 41 42 43 44 45 46 47 48 49 50
000
ASUS41 KALY 030310
RWRALY

NEW YORK STATE HOURLY WEATHER ROUNDUP
NATIONAL WEATHER SERVICE ALBANY NY
1100 PM EDT TUE JUN 02 2015

NOTE: "FAIR" INDICATES FEW OR NO CLOUDS BELOW 12,000 FEET WITH NO
SIGNIFICANT WEATHER AND/OR NO OBSTRUCTIONS TO VISIBILITY.

NYZ032-033-038>043-046>054-057>066-NYZ062>081-030400-
EAST


CITY           SKY/WX    TMP DP  RH WIND       PRES   REMARKS
ALBANY         CLOUDY    57  50  77 N10       30.19R
GLENS FALLS    CLOUDY    53  45  74 NE8       30.21R
POUGHKEEPSIE   CLOUDY    53  50  89 CALM      30.18R
NEWBURGH       CLEAR     52  52 100 CALM        N/A
MONTGOMERY     CLOUDY    52  32  46 CALM      30.18R
WHITE PLAINS   CLOUDY    52  50  93 NE3       30.18R
ISLIP          LGT RAIN  52  49  89 E5        30.17R
NEW YORK CITY  LGT RAIN  54  49  83 NE7       30.19R
CENTRAL PARK   CLOUDY    53  51  93 E3        30.21R FOG
$$

NYZ005>009-017-018-044>046-055-056-030400-
CENTRAL


CITY           SKY/WX    TMP DP  RH WIND       PRES   REMARKS
FULTON         PTCLDY    48  44  86 CALM      30.21S
SYRACUSE       PTCLDY    50  49  96 N3        30.20S
ROME           PTCLDY    52  47  83 CALM      30.21R
ELMIRA         PTCLDY    47  46  97 CALM      30.20R
BINGHAMTON     CLOUDY    52  48  86 N7        30.18S
MONTICELLO     CLOUDY    48  48 100 CALM      30.19S
$$

NYZ026>034-041>043-030400-
NORTH


CITY           SKY/WX    TMP DP  RH WIND       PRES   REMARKS
WATERTOWN      CLEAR     44  43  96 CALM      30.22R
FORT DRUM      NOT AVBL
MASSENA        PTCLDY    42  40  92 CALM      30.23F FOG
SARANAC LAKE   FOG       38  37  97 CALM      30.20F VSB 1
PLATTSBURGH    CLEAR     44  43  96 W3        30.23S
$$

NYZ001>004-010>016-019>021-030400-
WEST


CITY           SKY/WX    TMP DP  RH WIND       PRES   REMARKS
NIAGARA FALLS  PTCLDY    54  46  74 E5        30.20R
BUFFALO        PTCLDY    55  46  71 E7        30.20S
DUNKIRK        CLEAR     51  45  79 E5        30.19R
JAMESTOWN      PTCLDY    52  43  71 NE6       30.20R
WELLSVILLE     PTCLDY    49  44  83 NE3       30.22R
ROCHESTER      PTCLDY    53  44  71 E5        30.22S
PENN YAN       PTCLDY    47  45  93 CALM      30.21R
$$

             KEY
       WCI = WIND CHILL INDEX
       VSB = VISIBILITY
       HX  = HEAT INDEX
$$



USA.gov is the U.S. government's official web portal to all federal, state and local government web resources and services.